Location: Dingy
(45.9081°N, 6.2245°E)
Time: 04:57:49
(UTC+00:00)

Daily predictions for brighter satellites

Satellite Brightness Start Highest point End
(mag) Time Altitude Azimuth Time Altitude Azimuth Time Altitude Azimuth
SL-16 R/B 4.4 00:17:11 24° NE 00:17:11 24° NE 00:21:37 10° N
Cosmos 2278 Rocket 4.3 00:34:23 22° NNE 00:34:23 22° NNE 00:36:18 10° NNE
Cosmos 1943 Rocket 4.3 00:45:02 20° NE 00:45:02 20° NE 00:46:56 10° NE
CZ-2D R/B 4.2 00:56:46 10° NNE 00:58:53 24° NE 00:58:53 24° NE
Resurs 1-4 Rocket 4.0 01:05:35 10° NNE 01:07:57 26° NNE 01:07:57 26° NNE
BREEZE-M DEB (TANK) 4.2 01:26:05 61° NE 01:26:05 61° NE 01:39:48 10° E
IDEFIX/ARIANE 42P 4.2 01:26:17 10° NNE 01:28:56 30° NNE 01:28:56 30° NNE
ATLAS 5 CENTAUR R/B 4.4 01:36:11 13° NE 01:36:11 13° NE 01:36:38 10° NE
Lacrosse 4 Rocket 4.4 01:41:59 11° N 01:41:59 11° N 01:42:20 10° N
Cosmos 2369 Rocket 3.3 01:51:59 38° ENE 01:51:59 38° ENE 01:56:08 10° NE
Cosmos 1745 Rocket 4.3 01:54:52 60° NE 01:54:52 60° NE 01:59:58 10° NNE
SL-16 R/B 3.4 02:02:16 39° NNW 02:02:16 39° NNW 02:06:06 10° NNW
Cosmos 1709 Rocket 4.3 02:05:41 57° E 02:05:46 57° E 02:11:47 10° NNE
SeaSat 1 3.4 02:05:29 10° NNE 02:08:55 45° NE 02:08:55 45° NE
Cosmos 2278 Rocket 4.0 02:16:12 20° NNW 02:16:12 20° NNW 02:19:35 10° N
ADEOS II 3.0 02:11:17 10° N 02:14:47 41° N 02:14:47 41° N
FENGYUN 3A 4.1 02:12:45 10° NNE 02:17:59 55° E 02:17:59 55° E
Cosmos 1656 Rocket 3.9 02:21:22 62° ENE 02:21:22 62° ENE 02:26:07 10° NNE
CZ-2C R/B 3.8 02:16:40 14° SE 02:21:04 42° ENE 02:26:15 10° N
MSX 4.2 02:16:48 10° N 02:21:27 53° NNW 02:21:27 53° NNW
ALOS 3.3 02:18:47 10° NNE 02:22:45 42° E 02:22:45 42° E
Cosmos 1943 Rocket 3.3 02:26:32 33° NNW 02:26:32 33° NNW 02:30:41 10° NNE
Lacrosse 5 2.3 02:32:48 58° NNE 02:32:48 58° NNE 02:37:02 10° NE
ATLAS CENTAUR R/B 2.4 02:36:08 47° NE 02:36:08 47° NE 02:39:18 10° NE
Meteor 1-25 Rocket 4.3 02:30:24 10° N 02:36:04 74° ENE 02:36:54 62° SE
Cosmos 1812 4.4 02:38:18 31° NE 02:38:18 31° NE 02:40:31 10° NNE
CZ-2D R/B 3.7 02:37:20 10° N 02:40:13 23° NW 02:40:13 23° NW
Cosmos 921 Rocket 3.8 02:43:20 51° NNE 02:43:20 51° NNE 02:46:45 10° NNE
Cosmos 2263 4.1 02:47:33 76° S 02:48:01 86° ESE 02:53:48 10° NNE
Resurs 1-4 Rocket 3.8 02:46:15 10° NNW 02:49:02 20° NW 02:49:02 20° NW
Cosmos 2297 4.3 02:50:41 44° NW 02:50:41 44° NW 02:55:57 10° NNE
Helios 1A 3.7 02:52:33 42° ESE 02:53:30 52° ENE 02:57:31 10° N
Cosmos 1538 Rocket 3.9 02:55:01 78° W 02:55:11 80° WNW 03:00:36 10° NNE
Cosmos 44 3.1 02:56:29 75° NE 02:56:29 75° NE 03:00:46 10° NE
Cosmos 1782 3.4 02:58:18 54° NNE 02:58:18 54° NNE 03:01:27 10° NNE
IRS-1D 3.3 02:53:34 10° NNE 02:58:33 82° WNW 02:58:44 80° WSW
Cosmos 1933 3.7 02:59:58 59° NNE 02:59:58 59° NNE 03:03:20 10° N
NOSS 3-3 (A) 3.8 02:58:10 57° S 02:59:19 75° SE 03:05:42 10° NE
NOSS 3-3 (C) 3.8 02:58:15 57° S 02:59:25 74° SE 03:05:48 10° NE
Cosmos 1766 Rocket 4.4 03:00:13 10° NNW 03:03:11 39° NNW 03:03:11 39° NNW
Cosmos 1867 3.8 02:59:54 10° NNW 03:05:22 68° NE 03:10:47 10° SE
IDEFIX/ARIANE 42P 4.2 03:06:50 10° NNW 03:09:43 19° NW 03:09:43 19° NW
CZ-2C R/B 2.4 03:08:22 10° NNE 03:13:09 80° ESE 03:14:43 44° S
ATLAS 5 CENTAUR R/B 3.4 03:17:29 16° NNW 03:17:40 16° NNW 03:20:24 10° NNE
GEOS 3 Rocket 3.5 03:19:58 10° SSE 03:25:10 76° SW 03:30:30 10° NW
Timation 1 Rocket 4.3 03:21:07 10° NNW 03:27:11 87° ENE 03:33:11 10° SSE
ARGOS Delta rocket 4.4 03:29:55 34° WNW 03:29:55 34° WNW 03:32:59 10° NNW
CBERS-1 3.9 03:24:09 10° NNE 03:29:18 82° WNW 03:31:45 32° SSW
Meteor 1-26 Rocket 4.1 03:29:51 28° SSW 03:32:55 78° WNW 03:38:40 10° N
Cosmos 2221 3.0 03:33:37 41° WNW 03:33:37 41° WNW 03:37:42 10° N
Cosmos 2369 Rocket 3.0 03:33:46 31° WNW 03:34:59 34° NW 03:40:05 10° NNE
METEOR-M 4.0 03:33:37 10° N 03:38:57 71° WNW 03:42:01 26° SSW
Cosmos 1833 4.5 03:34:32 10° NW 03:39:57 44° WSW 03:45:22 10° S
Cosmos 2297 Rocket 4.2 03:35:30 10° N 03:40:28 30° NE 03:45:24 10° ESE
PLATFORM 4.4 03:38:10 16° NW 03:41:06 85° SW 03:44:47 10° SSE
Cosmos 2184 Rocket 3.9 03:39:50 15° SSW 03:45:04 74° W 03:51:15 10° N
SeaSat 1 4.0 03:43:52 10° N 03:47:25 20° NW 03:48:40 18° WNW
Cosmos 2181 Rocket 4.4 03:41:31 10° NNW 03:47:30 43° W 03:52:31 15° SSW
DELTA 2 R/B (1) 4.4 03:45:50 26° SW 03:48:13 38° SSE 03:53:22 10° E
Helios 1B rocket 3.7 03:46:20 10° NNE 03:50:07 39° E 03:53:51 10° S
PAYLOAD A 4.3 03:45:19 10° N 03:50:33 53° WNW 03:53:28 25° SW
Cosmos 1484 Rocket 2.7 03:47:09 10° NNE 03:50:54 78° E 03:54:00 15° S
BREEZE-M DEB (TANK) 3.5 03:47:29 24° W 03:51:40 69° NNW 03:54:35 10° ENE
ADEOS II 4.1 03:53:53 10° NW 03:55:08 11° NW 03:55:42 11° WNW
Cosmos 2227 Rocket 4.5 03:51:49 10° N 03:56:29 26° NE 04:01:09 10° ESE
USA 281 3.6 03:51:26 10° SE 03:57:56 68° ENE 04:04:28 10° NNW
Cosmos 1408 Rocket 3.9 03:55:37 10° NNW 03:59:52 43° W 04:04:03 10° SSW
ALOS 3.5 03:56:40 10° NNW 04:00:18 23° WNW 04:01:11 22° W
Envisat 2.9 03:55:42 10° N 04:00:47 74° WNW 04:05:51 10° SSW
YAOGAN 6 2.6 03:57:57 10° N 04:01:24 54° WNW 04:03:06 27° SW
CZ-2C R/B 3.4 03:58:08 18° SW 04:01:24 31° W 04:06:20 10° NNW
CZ-2C R/B 2.9 03:58:19 10° N 04:02:58 56° WNW 04:06:48 15° SW
Cosmos 1461 3.7 03:59:13 13° SSW 04:03:00 54° ESE 04:07:26 10° NE
SAR-Lupe-2 3.5 04:02:53 10° N 04:06:27 68° WNW 04:09:14 16° SSW
Meteor 1-14 Rocket 4.1 04:01:26 10° NNW 04:06:56 67° W 04:12:26 10° S
H-2A R/B 3.0 04:03:36 10° NNE 04:07:12 62° E 04:10:45 10° S
Cosmos 2154 Rocket 4.0 04:00:59 10° SSW 04:07:14 67° W 04:13:29 10° N
Sich 1 3.0 04:06:37 10° N 04:11:03 83° W 04:15:27 10° S
IRS-P3 4.1 04:06:53 10° NNE 04:12:15 83° WNW 04:17:34 10° SSW
Cosmos 1743 Rocket 3.6 04:08:22 10° NNW 04:12:45 58° W 04:17:08 10° S
ATLAS CENTAUR R/B 3.3 04:11:51 15° WNW 04:13:50 19° NW 04:16:56 10° N
SL-27 R/B 2.1 04:12:02 10° NNW 04:15:12 64° WSW 04:18:20 10° S
Lacrosse 5 3.3 04:11:59 13° WNW 04:15:38 28° NNW 04:20:01 10° NE
Cosmos 1515 3.5 04:13:22 10° SSW 04:17:03 67° W 04:20:46 10° N
Meteor 2-6 Rocket 4.3 04:11:37 10° SSW 04:17:33 70° WNW 04:23:31 10° N
Cosmos 1633 Rocket 4.4 04:14:20 10° N 04:18:35 43° ENE 04:22:46 10° SSE
Nadezhda 3 Rocket 4.1 04:13:05 10° NNW 04:19:11 56° W 04:25:20 10° SSW
Genesis I 3.1 04:16:18 17° SW 04:19:18 80° NW 04:23:13 10° NE
ATLAS 2AS CENTAUR R/B 4.4 04:17:46 10° NNW 04:24:02 32° NNE 04:29:59 10° E
ERS-1 4.4 04:19:28 10° N 04:24:26 68° WNW 04:29:21 10° SSW
Orbus 7S? 3.6 04:18:50 10° NW 04:25:24 86° NE 04:28:37 10° SE
SL-08 R/B 3.3 04:20:37 10° SSE 04:25:30 83° WSW 04:30:21 10° NNW
SL-19 R/B 4.5 04:24:08 10° N 04:29:06 43° WNW 04:33:58 10° SW
COSMOS 2455 3.6 04:23:35 10° S 04:29:25 54° ESE 04:35:17 10° NE
Cosmos 962 Rocket 4.4 04:23:37 10° S 04:29:44 83° W 04:35:57 10° N
GP-B 3.0 04:26:02 10° N 04:30:28 73° W 04:34:52 10° S
Cosmos 1680 Rocket 4.1 04:27:19 13° SW 04:31:35 38° WNW 04:36:31 10° N
CZ-2C R/B 4.3 04:28:44 10° NNE 04:32:09 36° E 04:35:31 10° SSE
Cosmos 2341 Rocket 4.1 04:30:03 10° S 04:36:27 88° W 04:42:52 10° N
BREEZE-M DEB (TANK) 3.2 04:39:15 13° SW 04:39:51 14° SW 04:41:13 10° S
ARIANE 5 R/B 2.9 04:36:35 10° N 04:41:30 45° WNW 04:46:24 10° SW
USA 276 1.8 04:39:12 14° WSW 04:41:36 86° NNW 04:44:31 10° ENE
H-2A R/B 3.4 04:37:37 10° NNE 04:42:17 41° E 04:46:53 10° SSE
Cosmos 1656 3.8 04:37:06 10° SSW 04:42:30 79° ESE 04:48:00 10° NNE
CZ-2D R/B 3.8 04:38:35 10° N 04:42:43 48° WNW 04:46:45 10° SW
NOSS 3-4 (A) 4.0 04:35:53 10° NW 04:42:47 62° WSW 04:50:37 10° SSE
NOSS 3-4 (C) 4.0 04:35:59 10° NW 04:42:55 63° WSW 04:50:45 10° SSE
Cosmos 1743 2.8 04:41:10 10° NNW 04:44:49 50° W 04:48:26 10° S
COSMO-SKYMED 1 2.6 04:43:10 10° SSE 04:47:30 88° ENE 04:51:53 10° NNW
Cosmos 1378 3.1 04:44:56 10° S 04:48:30 86° E 04:52:06 10° N
Meteor 1-27 Rocket 3.8 04:43:48 10° S 04:49:39 89° WNW 04:55:24 10° N
Cosmos 1470 Rocket 4.4 04:45:46 10° N 04:50:08 56° ENE 04:54:25 10° SSE
CZ-2C R/B 4.1 04:48:11 10° NNW 04:50:45 15° WNW 04:53:23 10° W
Cosmos 2056 Rocket 4.2 04:46:31 10° NW 04:51:01 31° W 04:55:33 10° SSW
BREEZE-M DEB (TANK) 4.2 04:41:47 10° W 04:51:04 64° NNW 04:54:16 10° ENE
Spot 4 Rocket 4.0 04:46:53 10° NNE 04:52:03 77° WNW 04:57:11 10° SSW
BREEZE-M DEB (TANK) 2.6 04:51:26 10° WNW 04:54:52 59° NNE 04:57:04 10° E
SJ-6F 4.4 04:50:59 10° NNE 04:55:07 85° WNW 04:59:16 10° SSW
Cosmos 2366 rocket 4.0 04:53:41 10° SSW 04:59:53 80° W 05:06:13 10° N
Cosmos 1607 4.0 04:54:38 10° SW 05:00:46 79° NW 05:07:01 10° NE
BREEZE-M R/B 3.5 04:57:39 10° WNW 05:03:23 58° N 05:05:37 10° E
